Tracking 18980 objects as of 19-Feb-2018
HD Live streaming from Space Station
objects crossing your sky now

ARIANE 44LP DEB

Track ARIANE 44LP DEB now!
10-day predictions


NORAD ID: 27662
Int'l Code: 1991-015N
Perigee: 363.0 km
Apogee: 23,995.7 km
Inclination: 5.9 °
Period: 419.1 minutes
Semi major axis: 18550 km
RCS: 0.2322 m2 (medium)
Launch date: March 2, 1991
Source: France (FR)
Launch site: FRENCH GUIANA (FRGUI)

Note: This is SATELLITE DEBRIS
aabbcc
Your satellite tracking list
Your tracking list is empty




NASA's NSSDC Master Catalog

Two Line Element Set (TLE):
1 27662U 91015N   18050.18247007  .00006719  00000-0  52435-2 0  9996
2 27662   5.9221   2.0447 6369858 347.0667   2.1639  3.43616490221001
Source of the keplerian elements: AFSPC